Preview of NWS' New Version of Forecast
This preview is not operational and should not be used for support decisions.

Regional Weather Roundup (RWR)

Issued by National Weather Service (NWS)

                            
000
ASUS46 KPQR 191710
RWROR 

OREGON REGIONAL WEATHER ROUNDUP
NATIONAL WEATHER SERVICE PORTLAND OR
1000 AM PDT MON AUG 19 2019

NOTE: "FAIR" INDICATES FEW OR NO CLOUDS BELOW 12,000 FEET WITH
NO SIGNIFICANT WEATHER AND/OR OBSTRUCTIONS TO VISIBILITY.

ORZ001>013-191800-
NORTHWEST OREGON

  
CITY           SKY/WX    TMP DP  RH WIND       PRES   REMARKS
ASTORIA        CLOUDY    66  58  75 NE3       30.01R                  
TILLAMOOK      SUNNY     66  54  63 CALM      30.02F                  
NEWPORT          N/A    N/A N/A N/A MISG        N/A                   
FLORENCE       FAIR      63  55  77 NW6       30.01S                  
PORTLAND       PTSUNNY   65  54  67 CALM      30.02R                  
VANCOUVER WA   CLOUDY    64  54  69 VRB5      30.01S                  
SCAPPOOSE      CLOUDY    66  54  65 CALM      30.00S                  
HILLSBORO      CLOUDY    65  53  65 SE5       30.02R                  
AURORA         CLOUDY    65  53  65 VRB3      30.03R                  
MCMINNVILLE    CLOUDY    65  55  70 CALM      30.02R                  
SALEM          CLOUDY    64  54  69 N6        30.01R                  
CORVALLIS      CLOUDY    63  55  75 CALM      30.03R                  
EUGENE         CLOUDY    63  54  72 CALM      30.02S                  
CRESWELL       CLOUDY    61  55  82 CALM      30.01S                  
$$

ORZ021-028-191800-
SOUTHWEST OREGON

  
CITY           SKY/WX    TMP DP  RH WIND       PRES   REMARKS
NORTH BEND     PTSUNNY   68  57  68 VRB6      30.02S                  
BROOKINGS      CLOUDY    57  54  89 SW3       30.00S                  
ROSEBURG       CLOUDY    62  53  72 CALM      30.01S                  
SEXTON SUMMIT  SUNNY     65  53  65 E3        30.04R                  
GRANTS PASS    FAIR      70  54  56 VRB5      30.00S                  
MEDFORD        SUNNY     73  53  49 VRB3      29.95F                  
$$

ORZ014>016-041-191800-
COLUMBIA GORGE

  
CITY           SKY/WX    TMP DP  RH WIND       PRES   REMARKS
TROUTDALE      CLOUDY    65  55  70 CALM      30.02R                  
HOOD RIVER     SUNNY     70  54  56 W12G22    29.94F                  
THE DALLES     SUNNY     74  54  49 NW13G21   29.91S                  
$$

ORZ029>031-041-044-049-050-061>064-502-503-505>511-191800-
EASTERN OREGON

  
CITY           SKY/WX    TMP DP  RH WIND       PRES   REMARKS
MADRAS         SUNNY     70  45  40 CALM      30.01S                  
REDMOND        SUNNY     72  45  37 CALM      30.01S                  
BEND           SUNNY     72  43  35 CALM      30.02S                  
PRINEVILLE     SUNNY     68  45  42 CALM      30.01F                  
KLAMATH FALLS  SUNNY     68  44  42 VRB3      30.06S                  
LAKEVIEW       SUNNY     69  44  40 VRB6      30.11S                  
HERMISTON      SUNNY     77  52  41 W15       29.90R                  
PENDLETON      SUNNY     77  44  30 W12       29.92S                  
JOHN DAY       SUNNY     72  41  32 W8        30.04S                  
MEACHAM        SUNNY     71  40  32 VRB5      30.03R                  
LA GRANDE      SUNNY     75  45  34 CALM      29.98S                  
BAKER CITY     SUNNY     76  44  32 W8        30.00R                  
BURNS          SUNNY     75  43  31 SW7       30.05S                  
ROME             N/A     83  34  17 N3        30.02R                  
ONTARIO        SUNNY     82  52  35 SE5       29.92S                  
$$